sat.trackr.live / text

‹ back to catalog

STARLINK-33914

NORAD 63774 · 2025-089Y

PAYLOAD ACTIVE UNKNOWN

§ Identity

Operator
Country
US
Launch date
2025-04-29
Launch site
AFETR
Launch vehicle
Mass (kg)
RCS (m²)

Purposes: comms

External: N2YO · Heavens-Above · Gunter

§ Orbital elements

Epoch: 2026-09-20T10:01:10.040448Z

Period
94.27 min
Inclination
43.0015°
Eccentricity
0.0001452
Mean motion
15.27582891 rev/d
Perigee alt
482.0 km
Apogee alt
484.0 km
Semi-major
6,861.2 km
B*
-9.1089e-5
RAAN
21.5828°
Arg perigee
270.6018°
Mean anomaly
89.4667°
Rev number
7,878

§ Raw data

STARLINK-339141 63774U 25089Y   26263.41747732 -.00002768  00000+0 -91089-4 0  99902 63774  43.0015  21.5828 0001452 270.6018  89.4667 15.27582891 78782

JSON: /api/v1/satellites/63774 · /tle

For live sub-satellite position, see the globe view (requires WebGL).

§ Visibility from observer

Set your observer location to see the next 7 days of passes ≥ 10°. The values pass through the URL so the page stays shareable.

No JS? Fill the form by hand. The geolocation button needs JavaScript.